Location: Newark
(21.1200°N, 73.4000°E)
Time: 15:20:28
(UTC+00:00)

Courier 1B Rocket - Pass Details

Date: 26 January 2020
Orbit: 920 x 1202 km, 28.2° (Epoch: 24 February)

Event Time Altitude Azimuth Distance (km) Brightness Sun altitude
Rises 04:22:09 0° 237° (WSW) 4,074 8.1 31.1°
Reaches altitude 10° 04:25:04 10° 234° (SW) 3,092 7.6 31.6°
Maximum altitude 04:32:38 62° 155° (SSE) 1,264 6.8 33.0°
Drops below altitude 10° 04:39:46 10° 76° (ENE) 2,922 8.0 34.2°
Sets 04:42:27 0° 73° (ENE) 3,836 8.5 34.7°
